User: anonymous   Login
Location: Borgo
(42.3939°N, 9.2791°E)
Time: 02:22:31
(UTC+00:00)
Language:

Cosmos 1626 Rocket - Orbit

View from above orbital plane
View from above orbital plane
View from above satellite
View from above satellite

Ground track
Ground track

The orbit data is extracted from the following two-line orbital elements,

1 15495U 85009B   21102.86766437  .00000096  00000-0  85669-5 0  9993
2 15495  82.5226 319.9684 0021254  48.1874 312.1152 14.83902795956932
Epoch (UTC): 12 April 2021 20:49:26
Eccentricity: 0.0021254
inclination: 82.5226°
perigee height: 602 km
apogee height: 632 km
right ascension of ascending node: 319.9684°
argument of perigee: 48.1874°
revolutions per day: 14.83902795
mean anomaly at epoch: 312.1152°
orbit number at epoch: 95693

The dashed part of the orbit path shows where the satellite is in the earth's shadow,  

DLR